Terminal Aerodrome Forecast
Issued by NWS Sioux Falls, SD

Home | Current Version | Previous Version | Graphics & Text | Print | Product List | Glossary On
Versions: 1 2 3 4 5 6 7 8 9 10 11 12
000
FTUS43 KFSD 301700 RRA
TAFHON
TAF
KHON 301748Z 3018/3118 34005KT P6SM FEW050
     FM310200 VRB03KT P6SM SCT080=

USA.gov is the U.S. government's official web portal to all federal, state and local government web resources and services.